Tracking 20232 objects as of 21-Jan-2020
HD Live streaming from Space Station
objects crossing your sky now

DELTA 1 DEB

Track DELTA 1 DEB now!
10-day predictions


NORAD ID: 13573
Int'l Code: 1978-026FL
Perigee: 887.6 km
Apogee: 994.8 km
Inclination: 99.0 °
Period: 103.7 minutes
Semi major axis: 7312 km
RCS: 0.0137 m2 (small)
Launch date: March 5, 1978
Source: United States (US)
Launch site: AIR FORCE WESTERN TEST RANGE (AFWTR)

Note: This is SATELLITE DEBRIS
aabbcc
Your satellite tracking list
Your tracking list is empty




NASA's NSSDC Master Catalog

Two Line Element Set (TLE):
1 13573U 78026FL  20021.25404566 -.00000013 +00000-0 +23600-4 0  9999
2 13573 099.0231 299.8507 0073281 145.7587 006.0171 13.88456018958712
Source of the keplerian elements: AFSPC